Temp_Advection
nan nan nan nan nan nan nan nan nan nan nan nan nan nan nan nan nan nan nan nan nan nan nan nan nan nan nan nan nan nan nan nan nan nan nan nan nan nan nan nan nan nan nan
nan 0 0 -0 0 0 0 0 -0 -0 0 0 0 -0 -0 0 -0 -0 0 0 0 0 -0 -0 0 0 0 -0 -0 -0 -0 0 0 -0 -0 -0 -0 -0 -0 0 -0 -0 nan
nan -0 0 0 0 0 -0 0 0 0 0 0 0 0 0 0 0 -0 -0 -0 0 0 0 -0 -0 -0 -0 -0 -0 -0 0 0 -0 -0 -0 -0 -0 0 0 0 -0 -0 nan
nan -0 -0 -0 0 0 -0 -0 -0 0 0 0 0 -0 -0 0 0 0 -0 -0 -0 0 0 -0 -0 -0 -0 -0 -0 -0 -0 0 -0 -0 -0 -0 -0 0 -0 -0 -0 -0 nan
nan 0 0 -0 -0 -0 -0 -0 -0 0 0 0 0 0 -0 -0 -0 -0 -0 0 0 0 0 -0 -0 0 -0 -0 -0 -0 -0 -0 -0 -0 -0 -0 -0 0 -0 -0 -0 -0 nan
nan 0 0 0 0 0 -0 -0 -0 -0 0 0 0 0 0 0 0 -0 -0 -0 0 0 0 0 -0 -0 -0 -0 -0 -0 -0 -0 -0 -0 -0 -0 0 -0 -0 -0 -0 -0 nan
nan 0 0 0 0 0 0 0 -0 -0 -0 0 0 0 0 0 0 0 0 0 -0 -0 0 0 -0 -0 -0 -0 -0 -0 -0 -0 -0 -0 -0 0 -0 -0 0 -0 0 0 nan
nan 0 0 0 0 0 0 0 0 -0 -0 0 0 0 0 0 0 0 0 0 0 0 0 0 -0 -0 -0 -0 -0 -0 -0 -0 -0 0 -0 -0 -0 0 -0 -0 -0 -0 nan
nan 0 0 0 0 -0 0 0 0 0 -0 -0 0 0 0 0 0 0 0 0 0 0 0 0 -0 -0 -0 -0 -0 -0 -0 -0 -0 -0 -0 -0 -0 -0 -0 -0 -0 -0 nan
nan 0 0 0 0 -0 -0 -0 -0 0 0 0 -0 -0 0 0 0 0 0 0 0 0 0 0 -0 -0 -0 -0 -0 -0 -0 -0 -0 -0 -0 -0 -0 0 0 -0 -0 -0 nan
nan -0 -0 0 0 0 -0 0 0 0 0 0 0 0 0 0 0 0 0 0 0 0 0 0 -0 -0 -0 -0 -0 -0 -0 -0 -0 -0 -0 -0 -0 -0 -0 -0 -0 -0 nan
nan -0 -0 -0 0 0 -0 0 0 0 0 0 0 0 0 0 0 0 0 0 0 0 0 0 0 -0 -0 -0 -0 -0 -0 0 -0 -0 -0 -0 -0 -0 -0 -0 -0 -0 nan
nan -0 -0 -0 0 0 0 0 0 0 0 0 0 0 0 0 0 0 0 0 0 0 0 -0 -0 -0 -0 -0 -0 -0 -0 0 0 -0 -0 -0 -0 -0 -0 -0 -0 -0 nan
nan -0 0 -0 -0 0 0 0 0 0 0 0 0 0 0 0 0 0 0 0 0 -0 -0 -0 -0 -0 -0 -0 -0 -0 0 0 0 -0 -0 -0 -0 -0 -0 -0 -0 -0 nan
nan 0 0 -0 0 0 0 0 0 0 0 0 0 0 0 0 0 0 0 0 -0 -0 -0 -0 -0 -0 -0 -0 -0 0 0 0 0 0 -0 0 0 -0 -0 -0 -0 -0 nan
nan 0 -0 -0 0 0 0 0 0 0 0 0 0 0 0 0 0 0 0 -0 -0 -0 -0 -0 -0 -0 -0 -0 0 0 0 0 0 0 0 0 0 0 -0 -0 -0 -0 nan
nan 0 0 0 -0 0 0 0 0 0 0 0 0 0 0 0 0 0 0 0 -0 -0 -0 -0 -0 0 0 0 0 0 0 0 0 0 0 0 0 0 0 -0 -0 -0 nan
nan 0 0 0 0 0 0 0 0 0 0 0 0 0 0 0 0 0 0 0 0 -0 -0 -0 -0 -0 -0 0 0 0 0 0 -0 0 0 0 0 0 0 0 -0 -0 nan
nan 0 0 0 0 0 0 0 0 0 0 0 0 0 0 0 0 0 0 0 0 -0 -0 -0 -0 -0 -0 -0 -0 -0 0 0 0 0 0 0 0 0 0 0 -0 -0 nan
nan 0 0 0 0 0 0 -0 -0 -0 0 0 0 0 0 0 0 -0 -0 -0 -0 0 -0 -0 -0 -0 -0 -0 -0 -0 -0 -0 0 0 0 0 0 0 0 0 -0 -0 nan
nan -0 -0 -0 -0 -0 -0 -0 -0 0 0 0 0 0 0 0 -0 -0 -0 -0 -0 -0 -0 -0 -0 -0 -0 -0 -0 -0 -0 -0 -0 0 0 0 0 0 0 0 0 -0 nan
nan -0 0 0 -0 -0 0 0 0 0 0 0 0 0 0 0 0 -0 -0 -0 -0 -0 -0 -0 -0 -0 -0 -0 -0 -1 -1 -1 -0 0 0 0 0 0 0 0 0 0 nan
nan 0 0 0 0 0 0 0 0 0 0 0 -0 -0 -0 0 0 0 -0 -0 -0 -0 -0 -0 -0 -0 -0 -0 0 -0 -0 -0 -0 -0 -0 0 0 0 0 0 0 0 nan
nan 1 1 1 1 0 0 0 0 0 0 0 0 0 0 -0 -0 0 -0 -0 -0 -0 -0 -0 -0 -0 -0 -0 -0 -0 0 0 -0 -1 -0 -0 -0 0 0 0 0 0 nan
nan 1 1 1 1 1 1 1 1 1 0 0 0 0 0 0 -0 0 0 -0 -0 -0 -0 -0 -0 -0 -0 -0 -0 0 0 0 0 0 -1 -1 -0 -0 0 0 0 0 nan
nan nan nan nan nan nan nan nan nan nan nan nan nan nan nan nan nan nan nan nan nan nan nan nan nan nan nan nan nan nan nan nan nan nan nan nan nan nan nan nan nan nan nan
Wind_Speed
15 13 12 11 11 10 10 10 12 12 11 12 14 15 13 13 15 17 16 12 14 16 17 18 18 18 18 17 16 16 15 16 15 15 16 16 16 16 16 16 15 17 18
16 14 12 11 11 11 11 11 11 11 9 12 13 14 13 13 15 15 13 12 16 17 17 17 18 18 18 17 16 17 16 14 13 13 13 14 14 15 15 14 14 15 16
13 12 12 11 11 11 11 11 11 11 9 11 13 13 14 14 14 15 15 16 17 17 17 17 17 17 17 17 17 16 15 13 13 11 12 13 13 13 13 13 13 13 13
12 11 11 12 11 11 11 11 11 10 9 11 11 12 13 14 14 14 14 14 15 15 15 16 15 16 16 16 15 15 15 15 14 13 11 12 13 11 11 11 11 11 12
12 11 11 12 11 11 11 11 10 10 11 10 10 11 11 12 12 13 14 14 13 13 13 13 13 13 13 13 13 14 14 14 14 13 13 12 12 10 10 10 10 10 10
13 11 12 12 11 11 12 11 11 10 11 10 9 10 10 10 10 10 11 12 12 12 11 10 11 11 11 11 12 13 13 13 12 13 13 13 12 9 9 10 10 10 10
11 12 12 12 12 11 11 11 10 10 10 8 8 8 7 8 8 9 9 9 9 9 9 8 8 9 9 9 10 11 11 10 10 11 12 11 9 8 8 9 9 9 8
7 13 12 12 12 12 11 11 11 10 8 8 7 6 6 5 7 7 7 7 7 6 5 5 5 6 7 7 7 8 9 9 8 9 10 10 10 9 9 9 8 9 9
8 9 12 12 13 12 12 11 11 10 8 7 6 5 5 4 5 5 5 5 5 5 3 2 2 4 6 6 6 6 7 8 8 8 9 10 8 9 8 8 8 8 8
11 9 12 14 14 13 12 11 10 10 8 7 6 5 4 4 4 4 4 4 4 3 2 1 1 2 4 5 5 4 5 6 6 7 7 9 7 6 6 6 6 6 7
15 11 12 14 13 13 12 11 11 10 9 8 6 5 4 4 4 4 4 3 3 3 2 1 0 2 3 4 4 4 4 4 4 4 4 3 3 5 5 5 6 8 8
16 14 13 15 14 13 12 11 11 10 9 7 6 5 4 3 4 4 3 3 3 3 3 3 2 3 4 4 4 4 4 4 4 4 5 5 6 6 7 7 8 9 9
14 14 13 16 15 13 12 12 11 10 9 8 7 5 4 3 2 3 3 3 4 5 5 5 5 5 5 4 4 4 5 5 5 5 6 7 8 8 8 9 10 10 11
15 12 12 15 15 14 13 11 11 10 8 7 6 5 4 2 3 2 2 3 4 6 8 8 5 5 5 5 6 6 6 6 6 6 7 7 7 8 9 10 9 9 10
15 14 13 13 13 13 12 12 11 9 8 7 6 6 5 3 3 3 2 1 3 4 3 3 4 5 7 8 8 8 8 7 8 7 8 8 9 8 8 8 9 9 9
14 13 12 12 12 11 11 10 8 8 8 7 6 5 5 4 4 4 3 3 3 6 7 7 8 8 8 9 9 9 9 9 8 8 7 7 7 7 7 8 9 9 10
14 13 12 12 12 11 10 9 8 7 6 5 5 4 4 4 3 5 6 6 7 8 9 9 10 10 10 10 10 10 10 10 9 8 7 7 8 8 8 9 9 9 9
15 15 13 13 12 11 9 8 7 7 6 5 5 4 2 3 3 4 7 8 9 10 11 11 11 11 11 11 11 12 12 11 11 10 9 9 9 9 9 8 8 9 10
16 16 16 14 13 11 9 9 8 7 7 7 7 6 5 4 4 5 6 8 10 11 11 11 12 12 11 11 12 12 12 13 13 12 12 11 10 10 9 8 9 10 12
19 17 16 15 14 13 12 10 9 7 8 7 7 6 6 6 6 8 8 9 10 11 12 12 13 13 13 13 14 14 14 14 14 14 14 13 11 10 9 9 9 10 13
21 21 19 18 17 16 15 13 9 6 5 5 6 6 7 7 8 9 9 10 11 12 12 13 14 14 15 14 16 15 14 15 15 16 15 14 13 12 11 10 9 12 14
19 21 22 20 18 17 15 12 9 5 4 3 3 4 6 7 9 10 11 12 12 13 13 14 15 16 16 15 16 16 12 14 14 15 14 14 14 14 13 12 11 13 15
21 22 23 22 21 19 18 16 13 10 5 2 2 2 4 6 8 10 12 13 14 14 14 15 16 17 18 17 16 13 8 5 10 13 14 14 16 16 15 13 13 14 16
19 21 22 23 22 20 20 19 17 12 7 5 3 3 4 6 7 9 12 14 15 16 15 16 17 18 20 20 20 19 19 21 16 12 13 11 14 15 16 15 13 16 17
15 18 20 22 21 21 20 19 19 17 13 10 8 8 7 9 11 13 13 15 15 17 17 17 19 20 21 23 22 23 23 23 25 25 26 21 17 17 19 17 16 17 17
13 14 16 17 18 18 17 18 18 17 16 14 13 11 13 14 15 17 17 16 16 17 18 19 21 23 23 25 25 26 26 27 25 25 26 29 28 27 24 24 19 18 17
Wind_Direction
157 157 149 143 140 138 130 117 107 102 95 102 108 115 115 100 105 104 96 87 95 92 89 87 84 80 78 76 73 70 72 72 71 72 75 77 77 78 77 73 71 68 63
150 154 150 147 146 140 138 128 115 109 100 104 102 104 102 98 105 108 102 93 88 84 83 84 84 83 79 75 74 74 75 73 74 78 80 79 74 74 73 69 67 64 66
152 149 152 150 148 146 143 135 126 117 111 103 104 103 100 95 91 93 89 87 88 89 90 88 85 82 77 74 70 68 66 63 64 80 84 81 77 74 76 73 74 73 74
154 148 156 151 153 149 146 138 127 124 117 110 105 106 103 100 97 94 92 93 97 98 96 94 88 80 75 71 67 65 63 62 68 75 78 77 74 69 69 68 68 68 64
153 147 159 157 155 153 150 147 138 127 125 121 111 110 105 99 96 98 100 101 97 93 91 88 83 77 71 66 64 61 59 61 68 75 79 80 75 66 63 65 61 59 55
153 160 163 160 160 157 155 151 148 138 135 134 121 117 110 105 101 101 104 107 108 106 99 89 81 72 65 60 58 57 58 59 61 70 77 79 73 67 63 62 58 58 56
157 165 163 160 159 159 155 154 152 147 141 137 125 120 109 105 107 110 111 113 114 110 103 92 75 68 61 56 54 56 58 59 62 67 70 72 76 78 75 71 68 60 58
151 165 163 160 162 159 158 156 155 153 147 141 135 128 119 120 121 119 117 120 123 122 110 91 70 61 55 50 51 52 49 56 63 67 67 66 60 60 63 61 55 50 48
150 160 166 168 163 163 162 158 158 161 159 158 148 138 134 138 138 134 135 139 145 147 139 116 58 45 51 52 54 54 47 47 57 67 69 67 56 60 58 54 56 52 46
169 171 179 179 173 170 171 170 165 164 162 170 167 165 157 166 180 179 184 186 191 184 180 141 39 27 33 48 54 50 45 46 47 59 65 69 65 52 44 45 35 20 11
187 189 185 186 183 179 181 174 173 177 177 180 181 195 203 208 208 203 205 202 208 205 192 199 355 349 3 12 20 17 17 13 23 26 33 29 352 346 353 352 346 342 339
194 191 191 187 186 186 187 184 185 186 185 192 196 211 215 209 209 203 198 192 207 222 229 233 257 293 312 317 324 336 340 319 316 330 335 335 334 331 328 324 324 322 321
197 195 188 187 187 191 193 195 196 196 197 203 212 217 205 209 198 176 185 202 217 233 251 260 267 270 282 292 293 292 292 291 296 301 305 309 314 319 317 313 313 314 314
201 197 193 193 193 193 196 199 202 203 204 213 220 217 202 205 186 167 196 230 243 265 279 279 267 286 283 287 293 293 291 292 291 294 297 299 302 303 307 310 313 313 313
203 198 198 198 198 198 201 203 204 207 211 215 213 210 211 211 210 207 253 275 266 302 317 314 309 304 298 300 300 297 292 291 291 290 294 297 300 305 310 315 323 327 328
208 207 204 202 201 203 203 204 205 209 213 213 211 213 217 221 232 230 272 297 316 314 309 307 309 309 304 300 298 298 296 294 294 295 296 297 303 303 305 312 321 327 329
211 213 213 207 206 207 205 207 209 210 212 214 213 222 232 230 259 260 274 287 303 309 309 309 311 310 307 304 300 296 292 290 290 289 288 290 295 297 302 311 323 331 335
219 218 217 214 211 209 206 207 212 217 215 215 222 225 241 230 290 298 281 280 287 300 303 306 309 310 309 305 300 296 292 287 284 283 281 282 286 290 298 313 324 329 331
225 221 220 220 216 210 203 204 209 217 219 221 228 232 239 259 277 299 292 283 285 294 300 303 305 305 305 301 296 291 288 286 284 282 280 281 283 288 296 303 312 321 326
223 220 219 219 215 208 207 210 214 223 227 236 238 240 251 264 278 296 299 294 293 293 296 298 300 304 307 305 301 296 290 285 280 277 275 274 273 272 275 283 300 317 319
214 214 214 211 207 208 208 209 214 225 236 242 245 252 266 277 290 298 299 298 296 294 292 294 298 301 303 305 304 301 297 290 282 276 272 269 264 265 267 276 292 311 313
210 210 209 209 206 207 210 214 217 220 232 241 266 283 288 289 292 296 298 299 298 294 293 295 295 297 299 301 300 305 307 299 286 275 271 265 261 263 264 266 290 306 308
205 203 203 203 205 208 213 215 217 218 219 187 86 30 324 296 293 295 295 296 297 295 293 293 294 293 293 293 293 285 295 283 297 292 284 273 267 267 264 263 286 301 304
191 194 196 200 205 208 213 217 222 223 223 216 227 276 298 298 291 297 301 294 291 290 292 293 290 290 289 290 288 282 277 273 279 290 286 274 274 271 260 258 283 299 300
170 181 186 192 197 202 207 212 219 224 231 238 246 265 288 301 293 292 294 291 288 285 287 289 291 291 288 285 283 283 279 276 271 268 279 284 280 278 267 256 280 294 294
139 156 167 178 183 190 197 202 210 218 230 238 250 261 275 279 284 286 290 279 276 275 276 278 279 280 282 282 281 279 278 276 276 275 274 278 283 279 271 264 273 293 286
Height
1555 1557 1559 1560 1562 1563 1564 1565 1565 1565 1565 1565 1565 1566 1566 1567 1567 1567 1567 1567 1567 1566 1567 1567 1568 1568 1568 1568 1568 1569 1569 1568 1568 1568 1568 1568 1568 1567 1568 1567 1567 1566 1566
1555 1557 1559 1561 1562 1563 1564 1565 1566 1567 1567 1567 1567 1567 1568 1568 1568 1569 1569 1568 1568 1569 1570 1570 1570 1571 1570 1570 1570 1570 1570 1570 1570 1570 1570 1570 1569 1570 1569 1569 1569 1568 1568
1556 1558 1560 1562 1563 1564 1565 1566 1568 1568 1568 1569 1568 1569 1569 1570 1570 1570 1571 1570 1570 1571 1572 1572 1573 1573 1572 1573 1572 1572 1572 1572 1572 1571 1571 1571 1571 1571 1570 1570 1570 1570 1569
1556 1558 1560 1562 1564 1565 1566 1567 1568 1569 1569 1570 1570 1571 1571 1571 1572 1572 1573 1573 1573 1573 1574 1574 1574 1575 1575 1575 1575 1574 1574 1574 1573 1573 1573 1573 1573 1573 1572 1572 1572 1572 1571
1556 1558 1560 1562 1564 1565 1567 1568 1569 1570 1571 1571 1572 1572 1573 1573 1574 1574 1574 1575 1576 1576 1576 1576 1577 1577 1577 1577 1577 1577 1576 1575 1575 1574 1574 1574 1575 1575 1574 1573 1573 1573 1573
1556 1558 1561 1562 1564 1565 1567 1568 1569 1570 1571 1572 1573 1573 1574 1575 1575 1576 1576 1577 1577 1577 1578 1578 1579 1579 1579 1579 1579 1578 1578 1577 1577 1576 1576 1577 1576 1576 1576 1575 1575 1574 1574
1557 1559 1561 1563 1564 1566 1567 1569 1570 1571 1572 1573 1574 1575 1576 1576 1577 1577 1578 1578 1579 1579 1580 1580 1580 1580 1580 1580 1580 1580 1579 1579 1579 1578 1578 1577 1577 1577 1577 1577 1576 1575 1575
1557 1559 1561 1563 1564 1566 1567 1569 1571 1572 1573 1574 1575 1576 1576 1577 1578 1578 1579 1580 1580 1581 1581 1581 1581 1581 1581 1581 1581 1581 1581 1580 1580 1579 1579 1578 1578 1578 1577 1577 1577 1576 1576
1557 1559 1561 1563 1564 1566 1568 1569 1571 1572 1573 1574 1575 1576 1577 1577 1578 1579 1580 1580 1581 1581 1582 1582 1582 1582 1583 1582 1582 1582 1582 1581 1581 1581 1580 1580 1580 1579 1579 1578 1578 1577 1577
1557 1559 1560 1562 1564 1566 1568 1569 1571 1573 1574 1575 1576 1577 1577 1578 1579 1580 1580 1581 1581 1582 1582 1583 1583 1583 1583 1583 1582 1582 1582 1582 1582 1581 1581 1581 1581 1580 1579 1579 1579 1578 1577
1555 1557 1559 1561 1564 1566 1567 1569 1571 1572 1574 1575 1576 1576 1577 1578 1579 1580 1581 1581 1582 1582 1582 1583 1583 1583 1583 1583 1583 1583 1582 1582 1582 1582 1582 1582 1581 1580 1580 1579 1578 1578 1577
1553 1555 1557 1560 1562 1565 1567 1569 1570 1572 1573 1574 1575 1576 1577 1578 1579 1579 1581 1581 1582 1582 1582 1582 1583 1583 1583 1583 1583 1582 1582 1582 1582 1582 1582 1581 1581 1580 1580 1579 1578 1577 1576
1551 1553 1555 1558 1561 1563 1566 1568 1570 1571 1573 1574 1575 1576 1577 1578 1578 1579 1580 1581 1581 1581 1582 1582 1582 1583 1583 1583 1583 1583 1582 1582 1582 1581 1581 1580 1580 1579 1578 1577 1576 1575 1574
1549 1552 1554 1557 1559 1562 1564 1567 1569 1570 1572 1573 1574 1575 1577 1578 1578 1579 1580 1580 1581 1581 1581 1581 1581 1582 1582 1582 1582 1582 1582 1581 1580 1580 1579 1579 1578 1577 1577 1576 1575 1574 1572
1547 1551 1553 1556 1558 1561 1563 1565 1567 1569 1571 1572 1574 1575 1576 1577 1578 1579 1579 1580 1580 1580 1581 1581 1581 1581 1581 1581 1581 1580 1580 1579 1579 1578 1578 1577 1576 1576 1575 1574 1573 1571 1570
1547 1550 1553 1555 1557 1560 1562 1564 1566 1568 1570 1571 1573 1574 1575 1576 1577 1578 1579 1580 1580 1580 1580 1580 1580 1579 1579 1579 1579 1578 1577 1577 1576 1576 1575 1575 1574 1574 1573 1572 1571 1569 1568
1546 1549 1551 1554 1556 1559 1561 1564 1566 1567 1569 1571 1572 1574 1575 1576 1577 1578 1578 1579 1579 1579 1579 1579 1578 1578 1577 1576 1576 1576 1575 1574 1574 1573 1573 1572 1572 1571 1570 1570 1569 1568 1566
1545 1548 1550 1553 1555 1558 1560 1563 1564 1566 1568 1570 1571 1573 1574 1575 1575 1576 1577 1577 1577 1577 1577 1577 1576 1576 1575 1574 1573 1573 1572 1572 1571 1571 1571 1570 1570 1569 1568 1568 1567 1566 1565
1542 1545 1549 1552 1555 1558 1560 1561 1563 1565 1567 1568 1570 1571 1572 1573 1574 1574 1574 1575 1575 1575 1575 1575 1574 1573 1573 1572 1571 1571 1570 1569 1569 1568 1568 1568 1568 1567 1567 1565 1564 1563 1563
1537 1541 1545 1549 1553 1556 1559 1560 1562 1563 1565 1567 1569 1570 1571 1571 1572 1572 1572 1573 1573 1572 1572 1572 1572 1571 1570 1570 1569 1568 1567 1567 1566 1565 1565 1565 1565 1565 1564 1563 1562 1561 1560
1532 1536 1540 1544 1548 1552 1555 1557 1560 1562 1564 1565 1567 1568 1569 1570 1570 1571 1571 1571 1570 1570 1570 1570 1569 1569 1568 1567 1566 1565 1564 1563 1563 1562 1561 1561 1561 1561 1560 1560 1559 1558 1557
1527 1531 1536 1540 1544 1548 1552 1555 1558 1561 1562 1564 1565 1566 1567 1567 1568 1568 1568 1568 1568 1568 1567 1567 1566 1566 1565 1565 1564 1563 1561 1561 1559 1558 1557 1557 1557 1557 1556 1556 1555 1554 1552
1522 1526 1531 1536 1540 1545 1549 1552 1555 1558 1560 1561 1563 1564 1564 1565 1565 1566 1566 1565 1565 1565 1565 1564 1564 1563 1562 1562 1562 1563 1561 1558 1557 1556 1555 1554 1554 1553 1553 1553 1551 1550 1548
1518 1522 1527 1532 1536 1540 1545 1549 1552 1555 1558 1559 1560 1561 1561 1562 1562 1562 1562 1562 1561 1561 1561 1561 1560 1559 1559 1559 1558 1558 1558 1557 1555 1553 1551 1551 1551 1550 1549 1549 1548 1546 1544
1517 1520 1524 1528 1532 1536 1540 1544 1548 1552 1554 1556 1558 1559 1559 1561 1561 1560 1559 1558 1558 1557 1557 1557 1556 1555 1555 1554 1554 1553 1553 1552 1551 1550 1546 1546 1546 1546 1546 1545 1543 1542 1540
1519 1521 1524 1527 1530 1534 1537 1541 1545 1548 1550 1552 1554 1556 1557 1558 1558 1556 1554 1553 1553 1552 1552 1551 1551 1550 1549 1548 1548 1547 1547 1547 1546 1546 1543 1542 1540 1540 1540 1539 1538 1536 1535